sat.trackr.live / text

‹ back to catalog

STARLINK-35078

NORAD 65523 · 2025-200D

PAYLOAD ACTIVE UNKNOWN

§ Identity

Operator
Country
US
Launch date
2025-09-06
Launch site
AFWTR
Launch vehicle
Mass (kg)
RCS (m²)

Purposes: comms

External: N2YO · Heavens-Above · Gunter

§ Orbital elements

Epoch: 2026-09-20T22:37:59.700576Z

Period
93.90 min
Inclination
97.2849°
Eccentricity
0.0002222
Mean motion
15.33468266 rev/d
Perigee alt
464.0 km
Apogee alt
467.0 km
Semi-major
6,843.6 km
B*
4.9165e-4
RAAN
330.3861°
Arg perigee
177.6408°
Mean anomaly
182.4846°
Rev number
5,871

§ Raw data

STARLINK-350781 65523U 25200D   26263.94305209  .00015843  00000+0  49165-3 0  99992 65523  97.2849 330.3861 0002222 177.6408 182.4846 15.33468266 58715

JSON: /api/v1/satellites/65523 · /tle

For live sub-satellite position, see the globe view (requires WebGL).

§ Visibility from observer

Set your observer location to see the next 7 days of passes ≥ 10°. The values pass through the URL so the page stays shareable.

No JS? Fill the form by hand. The geolocation button needs JavaScript.